• In Romania
  • List of Countries
  • For 7 days
  • Water Temperature
  • Satellite Maps
  • Weather Map
  • Weather Widgets
  • user-avatar
    Login

    Hourly Weather Tatischevo

    Today, 21 August, Tuesday

    Time Temperature Precipitation Wind Pressure Humidity
    00:00 +18°C° 0 mm 2 mps 743 mmHg 62%
    01:00 +18°C° 0 mm 2 mps 743 mmHg 63%
    02:00 +17°C° 0 mm 2 mps 743 mmHg 63%
    03:00 +17°C° 0 mm 3 mps 743 mmHg 64%
    04:00 +17°C° 0 mm 3 mps 743 mmHg 64%
    05:00 +17°C° 0 mm 3 mps 743 mmHg 64%
    06:00 +17°C° 0 mm 3 mps 743 mmHg 64%
    07:00 +19°C° 0 mm 3 mps 743 mmHg 57%
    08:00 +21°C° 0 mm 3 mps 743 mmHg 51%
    09:00 +24°C° 0 mm 3 mps 743 mmHg 45%
    10:00 +26°C° 0 mm 4 mps 743 mmHg 41%
    11:00 +27°C° 0 mm 4 mps 743 mmHg 38%
    12:00 +28°C° 0 mm 5 mps 743 mmHg 34%
    13:00 +28°C° 0 mm 5 mps 743 mmHg 33%
    14:00 +28°C° 0 mm 5 mps 742 mmHg 32%
    15:00 +29°C° 0 mm 5 mps 742 mmHg 32%
    16:00 +28°C° 0 mm 5 mps 741 mmHg 36%
    17:00 +27°C° 0 mm 4 mps 741 mmHg 39%
    18:00 +26°C° 0 mm 3 mps 741 mmHg 43%
    19:00 +24°C° 0 mm 3 mps 741 mmHg 45%
    20:00 +22°C° 0 mm 3 mps 740 mmHg 46%
    21:00 +20°C° 0 mm 3 mps 740 mmHg 48%
    22:00 +19°C° 0 mm 3 mps 740 mmHg 46%
    23:00 +19°C° 0 mm 3 mps 740 mmHg 45%

    Tomorrow, 22 August, Wednesday

    Time Temperature Precipitation Wind Pressure Humidity
    00:00 +18°C° 0 mm 3 mps 740 mmHg 44%
    01:00 +18°C° 0 mm 4 mps 739 mmHg 43%
    02:00 +18°C° 0 mm 4 mps 739 mmHg 42%
    03:00 +18°C° 0 mm 4 mps 739 mmHg 40%
    04:00 +18°C° 0 mm 4 mps 738 mmHg 42%
    05:00 +18°C° 0 mm 4 mps 738 mmHg 43%
    06:00 +18°C° 0 mm 4 mps 738 mmHg 44%
    07:00 +17°C° 0.2 mm 5 mps 738 mmHg 47%
    08:00 +19°C° 0.2 mm 5 mps 738 mmHg 50%
    09:00 +20°C° 0.2 mm 5 mps 739 mmHg 53%
    10:00 +19°C° 0.6 mm 5 mps 739 mmHg 61%
    11:00 +18°C° 0.6 mm 4 mps 739 mmHg 69%
    12:00 +18°C° 0.6 mm 3 mps 739 mmHg 77%
    13:00 +19°C° 0.1 mm 4 mps 739 mmHg 70%
    14:00 +20°C° 0.1 mm 4 mps 739 mmHg 62%
    15:00 +22°C° 0.1 mm 5 mps 739 mmHg 54%
    16:00 +21°C° 0 mm 5 mps 740 mmHg 54%
    17:00 +20°C° 0 mm 4 mps 740 mmHg 53%
    18:00 +20°C° 0 mm 4 mps 740 mmHg 53%
    19:00 +18°C° 0 mm 4 mps 741 mmHg 57%
    20:00 +17°C° 0 mm 4 mps 741 mmHg 60%
    21:00 +14°C° 0 mm 3 mps 742 mmHg 64%
    22:00 +14°C° 0 mm 3 mps 742 mmHg 66%
    23:00 +13°C° 0 mm 3 mps 742 mmHg 69%

    Day after tomorrow, 23 August, Thursday

    Time Temperature Precipitation Wind Pressure Humidity
    00:00 +12°C° 0 mm 3 mps 743 mmHg 71%
    01:00 +12°C° 0 mm 3 mps 743 mmHg 74%
    02:00 +12°C° 0 mm 3 mps 743 mmHg 76%
    03:00 +11°C° 0 mm 3 mps 744 mmHg 78%
    04:00 +11°C° 0 mm 3 mps 744 mmHg 79%
    05:00 +11°C° 0 mm 3 mps 744 mmHg 79%
    06:00 +11°C° 0 mm 3 mps 744 mmHg 80%
    07:00 +13°C° 0 mm 3 mps 745 mmHg 71%
    08:00 +15°C° 0 mm 4 mps 745 mmHg 62%
    09:00 +17°C° 0 mm 5 mps 745 mmHg 53%
    10:00 +19°C° 0 mm 5 mps 746 mmHg 49%
    11:00 +19°C° 0 mm 5 mps 746 mmHg 45%
    12:00 +20°C° 0 mm 5 mps 746 mmHg 41%
    13:00 +21°C° 0 mm 5 mps 746 mmHg 40%
    14:00 +21°C° 0 mm 5 mps 746 mmHg 40%
    15:00 +21°C° 0 mm 5 mps 746 mmHg 40%
    16:00 +20°C° 0 mm 4 mps 746 mmHg 44%
    17:00 +19°C° 0 mm 4 mps 746 mmHg 47%
    18:00 +19°C° 0 mm 3 mps 746 mmHg 51%
    19:00 +17°C° 0 mm 3 mps 746 mmHg 55%
    20:00 +16°C° 0 mm 2 mps 746 mmHg 59%
    21:00 +14°C° 0 mm 2 mps 747 mmHg 62%
    22:00 +14°C° 0 mm 1 mps 747 mmHg 64%
    23:00 +13°C° 0 mm 1 mps 747 mmHg 65%

    24 August, Friday

    Time Temperature Precipitation Wind Pressure Humidity
    00:00 +13°C° 0 mm 1 mps 747 mmHg 67%
    01:00 +12°C° 0 mm 1 mps 747 mmHg 67%
    02:00 +12°C° 0 mm 1 mps 747 mmHg 68%
    03:00 +12°C° 0 mm 1 mps 747 mmHg 69%
    04:00 +12°C° 0 mm 1 mps 747 mmHg 69%
    05:00 +12°C° 0 mm 1 mps 747 mmHg 70%
    06:00 +12°C° 0 mm 2 mps 747 mmHg 70%
    07:00 +14°C° 0 mm 2 mps 747 mmHg 63%
    08:00 +16°C° 0 mm 2 mps 748 mmHg 56%
    09:00 +18°C° 0 mm 2 mps 748 mmHg 49%
    10:00 +19°C° 0 mm 2 mps 747 mmHg 45%
    11:00 +21°C° 0 mm 2 mps 747 mmHg 41%
    12:00 +23°C° 0 mm 2 mps 747 mmHg 36%
    13:00 +22°C° 0 mm 3 mps 747 mmHg 35%
    14:00 +24°C° 0 mm 3 mps 746 mmHg 35%
    15:00 +24°C° 0 mm 3 mps 746 mmHg 34%
    16:00 +23°C° 0 mm 2 mps 746 mmHg 38%
    17:00 +23°C° 0 mm 2 mps 746 mmHg 42%
    18:00 +21°C° 0 mm 2 mps 745 mmHg 47%
    19:00 +19°C° 0 mm 2 mps 746 mmHg 50%
    20:00 +19°C° 0 mm 1 mps 746 mmHg 53%
    21:00 +16°C° 0 mm 1 mps 746 mmHg 57%
    22:00 +16°C° 0 mm 1 mps 746 mmHg 58%
    23:00 +15°C° 0 mm 1 mps 745 mmHg 60%

    25 August, Saturday

    Time Temperature Precipitation Wind Pressure Humidity
    00:00 +15°C° 0 mm 1 mps 745 mmHg 62%
    01:00 +14°C° 0 mm 1 mps 745 mmHg 64%
    02:00 +14°C° 0 mm 1 mps 745 mmHg 65%
    03:00 +14°C° 0 mm 1 mps 745 mmHg 66%
    04:00 +14°C° 0 mm 1 mps 745 mmHg 67%
    05:00 +14°C° 0 mm 1 mps 746 mmHg 68%
    06:00 +14°C° 0 mm 1 mps 746 mmHg 68%
    07:00 +16°C° 0 mm 1 mps 746 mmHg 62%
    08:00 +18°C° 0 mm 2 mps 746 mmHg 56%
    09:00 +20°C° 0 mm 2 mps 746 mmHg 49%
    10:00 +21°C° 0 mm 2 mps 746 mmHg 46%
    11:00 +24°C° 0 mm 2 mps 746 mmHg 42%
    12:00 +25°C° 0 mm 2 mps 746 mmHg 38%
    13:00 +25°C° 0 mm 1 mps 745 mmHg 37%
    14:00 +26°C° 0 mm 1 mps 745 mmHg 36%
    15:00 +26°C° 0 mm 1 mps 745 mmHg 35%
    16:00 +25°C° 0 mm 1 mps 745 mmHg 38%
    17:00 +25°C° 0 mm 1 mps 745 mmHg 42%
    18:00 +24°C° 0 mm 1 mps 745 mmHg 45%
    19:00 +23°C° 0 mm 1 mps 745 mmHg 49%
    20:00 +21°C° 0 mm 1 mps 745 mmHg 52%
    21:00 +19°C° 0 mm 1 mps 745 mmHg 55%
    22:00 +19°C° 0 mm 1 mps 745 mmHg 58%
    23:00 +18°C° 0 mm 1 mps 745 mmHg 61%

    26 August, Sunday

    Time Temperature Precipitation Wind Pressure Humidity
    00:00 +18°C° 0 mm 1 mps 745 mmHg 64%
    01:00 +16°C° 0 mm 1 mps 745 mmHg 67%
    02:00 +16°C° 0 mm 1 mps 745 mmHg 71%
    03:00 +16°C° 0 mm 1 mps 745 mmHg 74%
    04:00 +16°C° 0 mm 1 mps 745 mmHg 76%
    05:00 +16°C° 0 mm 1 mps 746 mmHg 78%
    06:00 +16°C° 0 mm 1 mps 746 mmHg 80%
    07:00 +18°C° 0 mm 2 mps 746 mmHg 72%
    08:00 +20°C° 0 mm 2 mps 746 mmHg 65%
    09:00 +23°C° 0 mm 2 mps 746 mmHg 58%
    10:00 +24°C° 0 mm 2 mps 746 mmHg 53%
    11:00 +25°C° 0 mm 2 mps 746 mmHg 49%
    12:00 +26°C° 0 mm 3 mps 746 mmHg 45%
    13:00 +26°C° 0 mm 3 mps 745 mmHg 44%
    14:00 +27°C° 0 mm 3 mps 745 mmHg 42%
    15:00 +27°C° 0 mm 3 mps 745 mmHg 41%
    16:00 +26°C° 0 mm 3 mps 745 mmHg 45%
    17:00 +25°C° 0 mm 3 mps 745 mmHg 49%
    18:00 +24°C° 0 mm 2 mps 745 mmHg 53%
    19:00 +23°C° 0 mm 2 mps 745 mmHg 56%
    20:00 +20°C° 0 mm 2 mps 745 mmHg 59%
    21:00 +19°C° 0 mm 2 mps 745 mmHg 63%
    22:00 +18°C° 0 mm 2 mps 745 mmHg 63%
    23:00 +18°C° 0 mm 2 mps 745 mmHg 64%
    Show more